KK5DC Weather Reports


Display with metric or nautical units.
time (UTC)temp
F
wind
direction
speed
MPH
gust
MPH
rain 1hr
in
rain 24hr
in
rain mn
in
humidity
%
barometer
mb
20260901070026 78 149 0.0 0.0 0.00 0.00 0.00 82 1016.5
20260901070011 78 158 0.0 1.0 0.00 0.00 0.00 82 1017.3
20260901065508 79 176 0.0 0.0 0.00 0.00 0.00 81 1017.3
20260901065013 79 149 0.0 2.0 0.00 0.00 0.00 81 1016.5
20260901065008 79 176 0.0 2.0 0.00 0.00 0.00 81 1017.2
20260901064527 79 176 0.0 2.0 0.00 0.00 0.00 80 1017.2
20260901064525 79 153 0.0 2.0 0.00 0.00 0.00 80 1016.5
20260901064010 79 153 0.0 3.0 0.00 0.00 0.00 80 1016.5
20260901064006 79 176 0.0 2.0 0.00 0.00 0.00 80 1017.3
20260901063509 79 153 1.0 3.0 0.00 0.00 0.00 80 1016.5
20260901063507 79 176 0.0 2.0 0.00 0.00 0.00 80 1017.3
20260901063026 80 138 1.0 4.0 0.00 0.00 0.00 79 1016.5
20260901063013 80 179 0.0 2.0 0.00 0.00 0.00 79 1017.3
20260901062513 80 159 1.0 4.0 0.00 0.00 0.00 79 1016.5
20260901062504 80 171 0.0 2.0 0.00 0.00 0.00 79 1017.2
20260901062007 80 156 0.0 3.0 0.00 0.00 0.00 79 1016.3
20260901062003 80 180 0.0 2.0 0.00 0.00 0.00 79 1017.1
20260901061516 80 190 0.0 2.0 0.00 0.00 0.00 79 1017.1
20260901061514 80 142 1.0 3.0 0.00 0.00 0.00 79 1016.3
20260901061009 80 190 0.0 2.0 0.00 0.00 0.00 79 1017.0
20260901060506 80 165 1.0 3.0 0.00 0.00 0.00 78 1016.3
20260901060024 80 206 0.0 2.0 0.00 0.00 0.00 78 1016.9
20260901060021 80 149 1.0 4.0 0.00 0.00 0.00 78 1016.2
20260901055511 80 172 1.0 5.0 0.00 0.00 0.00 78 1016.0
20260901055508 80 184 0.0 2.0 0.00 0.00 0.00 78 1016.8
20260901055014 81 156 1.0 5.0 0.00 0.00 0.00 77 1016.1
20260901055010 81 178 0.0 2.0 0.00 0.00 0.00 77 1016.8
20260901054524 81 178 0.0 3.0 0.00 0.00 0.00 77 1016.8
20260901054520 81 196 2.0 7.0 0.00 0.00 0.00 77 1016.1
20260901054019 81 158 1.0 7.0 0.00 0.00 0.00 76 1016.0
20260901054010 81 161 0.0 3.0 0.00 0.00 0.00 76 1016.8
20260901053512 81 148 2.0 5.0 0.00 0.00 0.00 76 1016.0
20260901053509 81 93 0.0 2.0 0.00 0.00 0.00 76 1016.8
20260901053018 81 192 1.0 2.0 0.00 0.00 0.00 76 1016.8
20260901053014 81 181 1.0 5.0 0.00 0.00 0.00 76 1016.1
20260901052512 81 149 1.0 6.0 0.00 0.00 0.00 75 1016.0
20260901052507 81 198 1.0 3.0 0.00 0.00 0.00 75 1016.8
20260901052011 81 152 2.0 7.0 0.00 0.00 0.00 75 1016.0
20260901052007 81 201 0.0 3.0 0.00 0.00 0.00 75 1016.8
20260901051535 82 156 3.0 7.0 0.00 0.00 0.00 75 1016.1
20260901051514 82 209 1.0 2.0 0.00 0.00 0.00 75 1016.8
20260901051008 82 115 1.0 7.0 0.00 0.00 0.00 74 1016.0
20260901050510 82 205 0.0 2.0 0.00 0.00 0.00 74 1016.7
20260901050508 82 158 1.0 8.0 0.00 0.00 0.00 74 1016.0
20260901050023 82 180 0.0 2.0 0.00 0.00 0.00 74 1016.7
20260901050020 82 157 2.0 8.0 0.00 0.00 0.00 74 1016.1
20260901045509 82 160 4.0 8.0 0.00 0.00 0.00 73 1016.1
20260901045506 82 169 0.0 2.0 0.00 0.00 0.00 73 1016.8
20260901045012 82 117 0.0 4.0 0.00 0.00 0.00 73 1016.8
20260901045009 82 158 1.0 8.0 0.00 0.00 0.00 73 1016.0
20260901044527 82 160 4.0 7.0 0.00 0.00 0.00 73 1015.9
20260901044523 82 189 1.0 4.0 0.00 0.00 0.00 73 1016.7
20260901044012 82 157 2.0 6.0 0.00 0.00 0.00 72 1015.8
20260901044003 82 72 1.0 3.0 0.00 0.00 0.00 72 1016.6
20260901043509 83 155 0.0 3.0 0.00 0.00 0.00 72 1016.5
20260901043036 83 142 3.0 8.0 0.00 0.00 0.00 72 1015.6
20260901043034 83 157 1.0 4.0 0.00 0.00 0.00 72 1016.4
20260901042513 83 172 0.0 4.0 0.00 0.00 0.00 71 1016.4
20260901042013 83 146 1.0 6.0 0.00 0.00 0.00 71 1015.7
20260901042011 83 123 0.0 2.0 0.00 0.00 0.00 71 1016.5
20260901041546 83 149 2.0 5.0 0.00 0.00 0.00 71 1015.7
20260901041528 83 152 1.0 5.0 0.00 0.00 0.00 71 1016.4
20260901041018 83 160 2.0 5.0 0.00 0.00 0.00 70 1015.7
20260901041007 83 205 0.0 5.0 0.00 0.00 0.00 70 1016.5
20260901040513 83 155 1.0 7.0 0.00 0.00 0.00 70 1015.7
20260901040507 83 151 0.0 2.0 0.00 0.00 0.00 70 1016.5
20260901040020 83 155 1.0 7.0 0.00 0.00 0.00 69 1015.7
20260901040018 83 175 0.0 2.0 0.00 0.00 0.00 69 1016.5
20260901035507 84 181 0.0 3.0 0.00 0.00 0.00 69 1016.5
20260901035009 84 185 0.0 3.0 0.00 0.00 0.00 68 1016.5
20260901034524 84 205 2.0 6.0 0.00 0.00 0.00 68 1015.8
20260901034517 84 200 0.0 2.0 0.00 0.00 0.00 68 1016.4
20260901034013 84 136 2.0 6.0 0.00 0.00 0.00 68 1015.8
20260901033514 84 138 2.0 6.0 0.00 0.00 0.00 68 1015.7
20260901033509 84 210 0.0 3.0 0.00 0.00 0.00 68 1016.5
20260901033028 85 158 2.0 7.0 0.00 0.00 0.00 67 1015.8
20260901033011 85 168 0.0 3.0 0.00 0.00 0.00 67 1016.4
20260901032510 85 137 2.0 7.0 0.00 0.00 0.00 67 1015.7
20260901032507 85 236 1.0 4.0 0.00 0.00 0.00 67 1016.4
20260901032021 85 160 2.0 9.0 0.00 0.00 0.00 66 1015.6
20260901032011 85 161 0.0 4.0 0.00 0.00 0.00 66 1016.4
20260901031547 85 153 1.0 9.0 0.00 0.00 0.00 66 1015.6
20260901031528 85 181 1.0 4.0 0.00 0.00 0.00 66 1016.3
20260901031016 84 139 3.0 9.0 0.00 0.00 0.00 66 1015.6
20260901031007 84 232 0.0 4.0 0.00 0.00 0.00 66 1016.3
20260901030509 85 161 2.0 9.0 0.00 0.00 0.00 66 1015.5
20260901030507 85 197 0.0 2.0 0.00 0.00 0.00 66 1016.1
20260901030028 84 158 2.0 5.0 0.00 0.00 0.00 65 1015.3
20260901030017 84 183 0.0 2.0 0.00 0.00 0.00 65 1015.9
20260901025513 84 184 1.0 5.0 0.00 0.00 0.00 64 1015.2
20260901025506 84 98 0.0 2.0 0.00 0.00 0.00 64 1015.8
20260901025013 85 96 0.0 2.0 0.00 0.00 0.00 64 1015.7
20260901025010 85 164 2.0 4.0 0.00 0.00 0.00 64 1015.0
20260901024519 85 142 0.0 2.0 0.00 0.00 0.00 63 1015.5
20260901024018 85 139 1.0 3.0 0.00 0.00 0.00 62 1014.9
20260901024016 85 138 0.0 2.0 0.00 0.00 0.00 62 1015.5
20260901023511 85 66 1.0 4.0 0.00 0.00 0.00 63 1014.8
20260901023026 85 102 1.0 4.0 0.00 0.00 0.00 62 1014.7
20260901022510 85 267 1.0 3.0 0.00 0.00 0.00 62 1015.3
20260901022502 85 100 1.0 3.0 0.00 0.00 0.00 62 1014.5
20260901022017 85 175 1.0 3.0 0.00 0.00 0.00 61 1015.2
20260901022004 85 80 1.0 3.0 0.00 0.00 0.00 61 1014.5
20260901021521 85 243 0.0 3.0 0.00 0.00 0.00 61 1015.1
20260901021510 85 86 1.0 3.0 0.00 0.00 0.00 61 1014.5
20260901021010 85 138 0.0 4.0 0.00 0.00 0.00 62 1015.1
20260901021004 85 98 1.0 4.0 0.00 0.00 0.00 62 1014.5
20260901020513 84 161 1.0 4.0 0.00 0.00 0.00 62 1015.1
20260901020506 84 80 2.0 3.0 0.00 0.00 0.00 62 1014.4
20260901020040 83 219 0.0 2.0 0.00 0.00 0.00 62 1015.1
20260901020012 83 110 0.0 2.0 0.00 0.00 0.00 62 1014.4
20260901015506 83 94 0.0 2.0 0.00 0.00 0.00 63 1014.2
20260901015008 83 94 0.0 2.0 0.00 0.00 0.00 61 1015.0
20260901014525 83 101 0.0 2.0 0.00 0.00 0.00 61 1014.1
20260901014515 83 118 0.0 2.0 0.00 0.00 0.00 61 1015.0
20260901014011 83 101 1.0 2.0 0.00 0.00 0.00 61 1014.1
20260901014007 83 105 0.0 2.0 0.00 0.00 0.00 61 1014.9
20260901013512 83 130 0.0 1.0 0.00 0.00 0.00 62 1014.7
20260901013503 83 82 0.0 2.0 0.00 0.00 0.00 62 1014.1
20260901013023 83 130 0.0 1.0 0.00 0.00 0.00 59 1014.6
20260901013010 83 82 0.0 2.0 0.00 0.00 0.00 59 1014.0
20260901012507 84 138 0.0 0.0 0.00 0.00 0.00 59 1014.8
20260901012015 84 138 0.0 0.0 0.00 0.00 0.00 59 1014.9
20260901012003 84 82 0.0 1.0 0.00 0.00 0.00 59 1014.0
20260901011535 85 138 0.0 2.0 0.00 0.00 0.00 56 1014.7
20260901011505 85 82 0.0 2.0 0.00 0.00 0.00 56 1013.9
20260901011012 85 138 0.0 2.0 0.00 0.00 0.00 55 1014.7
20260901011004 85 82 0.0 2.0 0.00 0.00 0.00 55 1013.8
20260901010512 86 138 0.0 2.0 0.00 0.00 0.00 55 1014.6
20260901010504 86 82 0.0 2.0 0.00 0.00 0.00 55 1013.7
20260901010027 86 142 0.0 0.0 0.00 0.00 0.00 1014.5
20260901010004 86 82 1.0 2.0 0.00 0.00 0.00 1013.7
20260901005514 87 142 0.0 2.0 0.00 0.00 0.00 50 1014.5
20260901005504 87 82 0.0 2.0 0.00 0.00 0.00 50 1013.6
20260901005008 88 142 0.0 2.0 0.00 0.00 0.00 50 1014.4
20260901005004 88 82 0.0 3.0 0.00 0.00 0.00 50 1013.6
20260901004517 89 82 1.0 3.0 0.00 0.00 0.00 49 1013.6
20260901004008 90 169 0.0 2.0 0.00 0.00 0.00 47 1014.3
20260901004003 90 89 0.0 3.0 0.00 0.00 0.00 47 1013.6
20260901003511 90 101 0.0 6.0 0.00 0.00 0.00 47 1014.4
20260901003509 90 88 1.0 6.0 0.00 0.00 0.00 47 1013.7
20260901003023 91 96 0.0 6.0 0.00 0.00 0.00 45 1013.6
20260901003020 91 113 0.0 6.0 0.00 0.00 0.00 45 1014.5
20260901002512 91 196 0.0 3.0 0.00 0.00 0.00 43 1014.5
20260901002503 91 86 1.0 4.0 0.00 0.00 0.00 43 1013.5
20260901002012 92 156 0.0 3.0 0.00 0.00 0.00 43 1014.5
20260901002004 92 81 0.0 4.0 0.00 0.00 0.00 43 1013.5
20260901001524 92 132 0.0 5.0 0.00 0.00 0.00 44 1014.3
20260901001011 93 5 1.0 5.0 0.00 0.00 0.00 40 1014.2
20260901001003 93 71 1.0 5.0 0.00 0.00 0.00 40 1013.4
20260901000513 93 101 1.0 4.0 0.00 0.00 0.00 41 1014.2
20260901000503 93 312 1.0 3.0 0.00 0.00 0.00 41 1013.4
20260901000028 94 167 1.0 5.0 0.00 0.00 0.00 40 1014.2
20260901000008 94 350 0.0 5.0 0.00 0.00 0.00 40 1013.4
20260831235508 94 182 0.0 5.0 0.00 0.00 0.00 41 1014.2
20260831235505 94 82 0.0 5.0 0.00 0.00 0.00 41 1013.4
20260831235013 94 76 1.0 3.0 0.00 0.00 0.00 40 1014.2
20260831235004 94 44 1.0 4.0 0.00 0.00 0.00 40 1013.4
20260831234527 95 173 1.0 3.0 0.00 0.00 0.00 39 1014.3
20260831234512 95 105 2.0 4.0 0.00 0.00 0.00 39 1013.4
20260831234009 95 69 1.0 4.0 0.00 0.00 0.00 39 1014.1
20260831234007 95 62 2.0 4.0 0.00 0.00 0.00 39 1013.4
20260831233508 95 118 2.0 6.0 0.00 0.00 0.00 40 1014.1
20260831233032 95 83 1.0 6.0 0.00 0.00 0.00 40 1014.1
20260831233006 95 66 1.0 6.0 0.00 0.00 0.00 40 1013.4
20260831232508 96 321 1.0 5.0 0.00 0.00 0.00 38 1013.4
20260831232012 96 153 1.0 6.0 0.00 0.00 0.00 38 1014.1
20260831232009 96 42 1.0 5.0 0.00 0.00 0.00 38 1013.4
20260831231529 96 119 1.0 7.0 0.00 0.00 0.00 38 1014.1
20260831231526 96 67 2.0 7.0 0.00 0.00 0.00 38 1013.4
20260831231011 96 265 1.0 7.0 0.00 0.00 0.00 38 1014.1
20260831231007 96 80 2.0 7.0 0.00 0.00 0.00 38 1013.3
20260831230508 97 93 0.0 6.0 0.00 0.00 0.00 37 1013.4
20260831230029 97 174 1.0 5.0 0.00 0.00 0.00 38 1014.2
20260831230026 97 48 1.0 5.0 0.00 0.00 0.00 38 1013.4
20260831225511 97 352 1.0 5.0 0.00 0.00 0.00 38 1014.1
20260831225505 97 68 1.0 6.0 0.00 0.00 0.00 38 1013.4
20260831225012 97 143 1.0 4.0 0.00 0.00 0.00 38 1014.3
20260831225004 97 66 2.0 6.0 0.00 0.00 0.00 38 1013.4
20260831224523 97 74 1.0 8.0 0.00 0.00 0.00 38 1014.4
20260831224508 97 62 1.0 8.0 0.00 0.00 0.00 38 1013.5
20260831224012 97 117 1.0 8.0 0.00 0.00 0.00 38 1014.4
20260831224007 97 321 1.0 7.0 0.00 0.00 0.00 38 1013.6
20260831223515 97 144 2.0 7.0 0.00 0.00 0.00 36 1014.5
20260831223507 97 342 1.0 7.0 0.00 0.00 0.00 36 1013.6
20260831223020 98 153 1.0 5.0 0.00 0.00 0.00 37 1014.4
20260831223016 98 71 2.0 10.0 0.00 0.00 0.00 37 1013.6
20260831222508 99 134 2.0 10.0 0.00 0.00 0.00 36 1013.6
20260831222010 98 175 2.0 5.0 0.00 0.00 0.00 35 1014.5
20260831222003 98 72 2.0 5.0 0.00 0.00 0.00 35 1013.7
20260831221520 99 123 1.0 3.0 0.00 0.00 0.00 35 1014.6
20260831221513 99 129 2.0 5.0 0.00 0.00 0.00 35 1013.6
20260831221012 99 132 1.0 3.0 0.00 0.00 0.00 35 1014.6
20260831221009 99 155 2.0 5.0 0.00 0.00 0.00 35 1013.8
20260831220514 99 27 0.0 2.0 0.00 0.00 0.00 36 1014.6
20260831220030 99 336 0.0 4.0 0.00 0.00 0.00 36 1014.5
20260831220009 99 67 2.0 5.0 0.00 0.00 0.00 36 1013.7
20260831215509 99 121 1.0 4.0 0.00 0.00 0.00 36 1014.6
20260831215014 98 116 2.0 10.0 0.00 0.00 0.00 36 1013.9
20260831215011 98 236 1.0 6.0 0.00 0.00 0.00 36 1014.7
20260831214529 98 246 1.0 7.0 0.00 0.00 0.00 37 1014.9
20260831214516 98 74 2.0 10.0 0.00 0.00 0.00 38 1014.0
20260831214015 98 196 1.0 7.0 0.00 0.00 0.00 37 1015.0
20260831214003 98 349 3.0 8.0 0.00 0.00 0.00 37 1014.1
20260831213514 98 223 1.0 6.0 0.00 0.00 0.00 39 1015.0
20260831213505 98 113 2.0 7.0 0.00 0.00 0.00 39 1014.2
20260831213035 99 206 1.0 5.0 0.00 0.00 0.00 37 1015.1
20260831213011 99 126 3.0 8.0 0.00 0.00 0.00 37 1014.2
20260831212521 99 30 0.0 6.0 0.00 0.00 0.00 37 1015.1
20260831212506 99 161 3.0 9.0 0.00 0.00 0.00 37 1014.1
20260831212009 100 161 3.0 9.0 0.00 0.00 0.00 37 1014.2
20260831211521 99 192 2.0 9.0 0.00 0.00 0.00 38 1014.3
20260831211519 99 304 1.0 4.0 0.00 0.00 0.00 38 1015.1
20260831211007 100 201 1.0 4.0 0.00 0.00 0.00 38 1015.1
20260831211005 100 108 3.0 9.0 0.00 0.00 0.00 38 1014.3
20260831210511 101 5 1.0 4.0 0.00 0.00 0.00 35 1015.2
20260831210509 101 309 2.0 11.0 0.00 0.00 0.00 35 1014.4
20260831210024 101 181 7.0 11.0 0.00 0.00 0.00 36 1014.5
20260831205518 100 162 2.0 7.0 0.00 0.00 0.00 36 1014.6
20260831205511 100 187 1.0 6.0 0.00 0.00 0.00 36 1015.4
20260831205012 100 302 2.0 6.0 0.00 0.00 0.00 37 1015.5
20260831205006 100 228 4.0 7.0 0.00 0.00 0.00 37 1014.6
20260831204520 100 152 3.0 7.0 0.00 0.00 0.00 37 1014.8
20260831204518 100 118 1.0 3.0 0.00 0.00 0.00 37 1015.7
20260831204016 99 186 1.0 5.0 0.00 0.00 0.00 36 1015.7
20260831204012 99 139 1.0 8.0 0.00 0.00 0.00 36 1014.9
20260831203512 99 177 1.0 5.0 0.00 0.00 0.00 41 1015.7
20260831203504 99 175 2.0 9.0 0.00 0.00 0.00 41 1015.0
20260831203028 100 212 1.0 5.0 0.00 0.00 0.00 38 1015.8
20260831203008 100 167 3.0 10.0 0.00 0.00 0.00 38 1015.1
20260831202511 99 219 1.0 7.0 0.00 0.00 0.00 39 1015.8
20260831202505 100 210 5.0 10.0 0.00 0.00 0.00 39 1015.2
20260831202012 99 141 1.0 7.0 0.00 0.00 0.00 40 1015.9
20260831202007 99 221 3.0 8.0 0.00 0.00 0.00 40 1015.3
20260831201537 99 141 1.0 3.0 0.00 0.00 0.00 40 1016.1
20260831201513 99 235 1.0 8.0 0.00 0.00 0.00 40 1015.4
20260831201011 96 220 1.0 4.0 0.00 0.00 0.00 45 1016.1
20260831201006 96 161 2.0 9.0 0.00 0.00 0.00 45 1015.5
20260831200510 98 149 2.0 9.0 0.00 0.00 0.00 42 1015.5
20260831200024 97 212 1.0 3.0 0.00 0.00 0.00 43 1016.2
20260831195510 98 260 1.0 4.0 0.00 0.00 0.00 40 1016.2
20260831195506 98 215 2.0 9.0 0.00 0.00 0.00 40 1015.6
20260831195011 100 184 1.0 4.0 0.00 0.00 0.00 39 1016.4
20260831194602 99 176 1.0 7.0 0.00 0.00 0.00 40 1016.5
20260831194527 99 146 6.0 11.0 0.00 0.00 0.00 40 1015.8
20260831194016 98 40 2.0 7.0 0.00 0.00 0.00 41 1016.5
20260831194009 98 106 1.0 9.0 0.00 0.00 0.00 41 1015.8
20260831193511 97 211 1.0 4.0 0.00 0.00 0.00 44 1016.5
20260831193030 93 53 0.0 3.0 0.00 0.00 0.00 49 1016.1
20260831193028 93 126 0.0 3.0 0.00 0.00 0.00 49 1016.8
20260831192518 94 27 1.0 3.0 0.00 0.00 0.00 46 1016.7
20260831192515 94 346 1.0 7.0 0.00 0.00 0.00 46 1016.0
20260831192014 96 163 1.0 4.0 0.00 0.00 0.00 45 1016.7
20260831192005 96 266 2.0 11.0 0.00 0.00 0.00 45 1016.0
20260831191526 97 193 1.0 5.0 0.00 0.00 0.00 44 1016.8
20260831191515 97 246 5.0 11.0 0.00 0.00 0.00 44 1016.2
20260831191014 97 92 2.0 5.0 0.00 0.00 0.00 44 1016.8
20260831191008 97 81 1.0 9.0 0.00 0.00 0.00 44 1016.2
20260831190514 98 132 1.0 5.0 0.00 0.00 0.00 47 1016.9
20260831190504 98 105 3.0 9.0 0.00 0.00 0.00 47 1016.3
20260831190032 98 194 2.0 5.0 0.00 0.00 0.00 44 1017.0
20260831190022 98 120 4.0 10.0 0.00 0.00 0.00 44 1016.4
20260831185512 96 144 5.0 10.0 0.00 0.00 0.00 48 1016.5
20260831185507 96 150 1.0 4.0 0.00 0.00 0.00 48 1017.3
20260831185013 94 349 1.0 3.0 0.00 0.00 0.00 48 1016.6
20260831184529 95 101 1.0 5.0 0.00 0.00 0.00 48 1017.5
20260831184519 95 61 1.0 11.0 0.00 0.00 0.00 48 1016.7
20260831184013 96 225 3.0 11.0 0.00 0.00 0.00 46 1016.7
20260831184011 96 221 2.0 5.0 0.00 0.00 0.00 46 1017.4
20260831183515 96 146 2.0 9.0 0.00 0.00 0.00 46 1016.7
20260831183511 96 260 2.0 4.0 0.00 0.00 0.00 46 1017.4
20260831183014 95 44 2.0 9.0 0.00 0.00 0.00 47 1016.8
20260831183012 95 57 1.0 4.0 0.00 0.00 0.00 47 1017.5
20260831182510 96 184 4.0 9.0 0.00 0.00 0.00 46 1016.9
20260831182015 96 200 0.0 4.0 0.00 0.00 0.00 48 1017.6
20260831181533 95 180 3.0 8.0 0.00 0.00 0.00 50 1017.0
20260831181531 95 225 2.0 6.0 0.00 0.00 0.00 50 1017.8
20260831181008 94 190 1.0 7.0 0.00 0.00 0.00 49 1017.0
20260831180512 94 69 4.0 7.0 0.00 0.00 0.00 50 1017.8
20260831180507 94 5 2.0 7.0 0.00 0.00 0.00 50 1017.0
20260831180022 95 188 2.0 8.0 0.00 0.00 0.00 47 1017.1
20260831180013 95 250 1.0 4.0 0.00 0.00 0.00 47 1017.9
20260831175508 95 198 4.0 10.0 0.00 0.00 0.00 45 1017.2
20260831175505 95 150 1.0 6.0 0.00 0.00 0.00 45 1018.0
20260831175011 95 171 4.0 10.0 0.00 0.00 0.00 50 1017.4
20260831174524 94 94 1.0 4.0 0.00 0.00 0.00 49 1018.2
20260831174012 94 201 2.0 7.0 0.00 0.00 0.00 49 1017.4
20260831173507 95 123 1.0 5.0 0.00 0.00 0.00 52 1018.3
20260831173027 95 169 4.0 12.0 0.00 0.00 0.00 51 1017.4
20260831173024 95 85 1.0 4.0 0.00 0.00 0.00 51 1018.2
20260831172515 93 153 2.0 6.0 0.00 0.00 0.00 55 1017.4
20260831172013 92 239 1.0 5.0 0.00 0.00 0.00 53 1017.5
20260831172006 92 46 0.0 5.0 0.00 0.00 0.00 53 1018.3
20260831171525 92 161 2.0 7.0 0.00 0.00 0.00 51 1017.7
20260831171520 92 221 1.0 7.0 0.00 0.00 0.00 51 1018.5
20260831171015 93 124 2.0 7.0 0.00 0.00 0.00 50 1018.6
20260831170518 93 140 5.0 10.0 0.00 0.00 0.00 56 1017.7
20260831170516 93 219 1.0 4.0 0.00 0.00 0.00 56 1018.6
20260831170022 92 161 3.0 9.0 0.00 0.00 0.00 58 1017.7
20260831170014 92 271 0.0 4.0 0.00 0.00 0.00 58 1018.6
20260831165508 91 53 1.0 4.0 0.00 0.00 0.00 55 1018.6
20260831165506 91 113 0.0 5.0 0.00 0.00 0.00 55 1017.7
20260831165010 92 146 2.0 7.0 0.00 0.00 0.00 57 1017.9
20260831165007 92 237 0.0 7.0 0.00 0.00 0.00 57 1018.5
20260831164525 91 96 2.0 7.0 0.00 0.00 0.00 56 1017.8
20260831164512 91 139 1.0 7.0 0.00 0.00 0.00 56 1018.6
20260831164015 91 113 1.0 3.0 0.00 0.00 0.00 56 1018.6
20260831164010 91 167 3.0 5.0 0.00 0.00 0.00 56 1017.8
20260831163514 90 189 2.0 5.0 0.00 0.00 0.00 57 1017.9
20260831163511 90 260 1.0 3.0 0.00 0.00 0.00 57 1018.6
20260831163031 89 212 2.0 6.0 0.00 0.00 0.00 63 1017.9
20260831163027 89 150 1.0 2.0 0.00 0.00 0.00 63 1018.7
20260831162509 87 160 0.0 3.0 0.00 0.00 0.00 65 1018.8
20260831162012 89 172 3.0 6.0 0.00 0.00 0.00 63 1017.9
20260831161533 89 193 4.0 6.0 0.00 0.00 0.00 63 1017.9
20260831161018 88 156 1.0 7.0 0.00 0.00 0.00 1017.9
20260831161005 88 169 1.0 3.0 0.00 0.00 0.00 1018.8
20260831160511 88 161 1.0 3.0 0.00 0.00 0.00 70 1018.9
20260831160037 87 200 3.0 7.0 0.00 0.00 0.00 70 1018.0
20260831160033 87 243 1.0 3.0 0.00 0.00 0.00 70 1018.8
20260831155516 87 170 3.0 6.0 0.00 0.00 0.00 1018.0
20260831155504 87 156 0.0 4.0 0.00 0.00 0.00 1018.8
20260831155008 87 251 1.0 6.0 0.00 0.00 0.00 73 1017.9
20260831154552 85 207 2.0 6.0 0.00 0.00 0.00 73 1017.8
20260831154540 85 230 0.0 2.0 0.00 0.00 0.00 73 1018.6
20260831154011 86 234 1.0 4.0 0.00 0.00 0.00 72 1018.6
20260831154007 86 215 3.0 6.0 0.00 0.00 0.00 72 1017.8
20260831153511 86 198 5.0 7.0 0.00 0.00 0.00 72 1017.7
20260831153025 85 268 0.0 3.0 0.00 0.00 0.00 75 1018.5
20260831153022 85 211 4.0 7.0 0.00 0.00 0.00 75 1017.6
20260831152511 84 207 4.0 6.0 0.00 0.00 0.00 76 1017.8
20260831152017 84 205 0.0 4.0 0.00 0.00 0.00 76 1018.6
20260831152014 84 180 4.0 8.0 0.00 0.00 0.00 76 1017.7
20260831151524 84 202 5.0 8.0 0.00 0.00 0.00 75 1017.7
20260831151521 84 146 2.0 5.0 0.00 0.00 0.00 75 1018.6
20260831151014 84 181 5.0 8.0 0.00 0.00 0.00 77 1017.7
20260831150517 84 229 5.0 9.0 0.00 0.00 0.00 77 1017.6
20260831150035 85 175 5.0 9.0 0.00 0.00 0.00 77 1017.6
20260831150017 85 205 1.0 4.0 0.00 0.00 0.00 77 1018.5
20260831145512 84 130 2.0 8.0 0.00 0.00 0.00 82 1017.5
20260831145509 84 148 1.0 2.0 0.00 0.00 0.00 82 1018.4
20260831145019 83 148 2.0 8.0 0.00 0.00 0.00 82 1017.5
20260831145014 83 206 1.0 2.0 0.00 0.00 0.00 82 1018.4
20260831144534 82 182 3.0 7.0 0.00 0.00 0.00 82 1017.5
20260831144526 82 151 0.0 2.0 0.00 0.00 0.00 82 1018.4
20260831144011 83 153 3.0 6.0 0.00 0.00 0.00 82 1017.5
20260831144006 83 175 0.0 4.0 0.00 0.00 0.00 82 1018.4
20260831143511 83 223 1.0 4.0 0.00 0.00 0.00 82 1018.3
20260831143508 83 200 4.0 8.0 0.00 0.00 0.00 82 1017.4
20260831143033 83 183 2.0 5.0 0.00 0.00 0.00 83 1018.3
20260831143028 83 224 3.0 8.0 0.00 0.00 0.00 83 1017.4
20260831142512 82 197 4.0 7.0 0.00 0.00 0.00 85 1017.4
20260831142506 82 271 1.0 5.0 0.00 0.00 0.00 85 1018.3
20260831142015 81 162 3.0 6.0 0.00 0.00 0.00 87 1017.4
20260831141528 81 178 1.0 4.0 0.00 0.00 0.00 87 1018.3
20260831141016 80 165 0.0 2.0 0.00 0.00 0.00 89 1018.3
20260831140510 80 232 0.0 2.0 0.00 0.00 0.00 90 1018.3
20260831140508 80 162 3.0 6.0 0.00 0.00 0.00 90 1017.4
20260831140031 79 237 2.0 4.0 0.00 0.00 0.00 91 1017.4
20260831140026 79 229 0.0 2.0 0.00 0.00 0.00 91 1018.2
20260831135516 79 204 0.0 2.0 0.00 0.00 0.00 92 1018.2
20260831135021 78 238 0.0 2.0 0.00 0.00 0.00 93 1018.2
20260831135018 78 178 2.0 5.0 0.00 0.00 0.00 93 1017.4
20260831134528 78 254 0.0 2.0 0.00 0.00 0.00 93 1018.1
20260831134526 78 165 1.0 3.0 0.00 0.00 0.00 93 1017.3
20260831134016 77 178 0.0 2.0 0.00 0.00 0.00 93 1017.2
20260831133517 77 194 0.0 2.0 0.00 0.00 0.00 94 1017.1
20260831133507 77 213 0.0 2.0 0.00 0.00 0.00 94 1018.0
20260831133034 76 190 1.0 2.0 0.00 0.00 0.00 94 1017.1
20260831133017 76 233 0.0 2.0 0.00 0.00 0.00 94 1018.0
20260831132513 76 218 0.0 2.0 0.00 0.00 0.00 94 1017.9
20260831132011 76 200 0.0 2.0 0.00 0.00 0.00 94 1017.8
20260831131528 75 230 0.0 0.0 0.00 0.00 0.00 94 1017.8
20260831131525 75 163 1.0 2.0 0.00 0.00 0.00 94 1017.0
20260831131018 75 192 0.0 0.0 0.00 0.00 0.00 94 1017.0
20260831131011 75 230 0.0 0.0 0.00 0.00 0.00 94 1017.8
20260831130516 74 205 0.0 0.0 0.00 0.00 0.00 94 1016.9
20260831130036 74 205 0.0 0.0 0.00 0.00 0.00 94 1016.8
20260831130030 74 230 0.0 0.0 0.00 0.00 0.00 94 1017.7
20260831125516 74 205 0.0 0.0 0.00 0.00 0.00 94 1016.8
20260831125513 74 230 0.0 0.0 0.00 0.00 0.00 94 1017.7
20260831125015 74 205 0.0 0.0 0.00 0.00 0.00 93 1016.8
20260831124532 73 205 0.0 0.0 0.00 0.00 0.00 93 1016.8
20260831124018 73 230 0.0 0.0 0.00 0.00 0.00 93 1017.6
20260831123513 73 205 0.0 0.0 0.00 0.00 0.00 93 1016.7
20260831123505 73 230 0.0 0.0 0.00 0.00 0.00 93 1017.6
20260831123031 73 205 0.0 0.0 0.00 0.00 0.00 93 1016.7
20260831123017 73 230 0.0 0.0 0.00 0.00 0.00 93 1017.5
20260831122521 73 205 0.0 0.0 0.00 0.00 0.00 93 1016.6
20260831122506 73 230 0.0 0.0 0.00 0.00 0.00 93 1017.5
20260831122015 73 205 0.0 0.0 0.00 0.00 0.00 93 1016.6
20260831122009 73 230 0.0 0.0 0.00 0.00 0.00 93 1017.4
20260831121532 73 230 0.0 0.0 0.00 0.00 0.00 93 1017.4
20260831121529 73 205 0.0 0.0 0.00 0.00 0.00 93 1016.6
20260831121011 73 205 0.0 0.0 0.00 0.00 0.00 93 1016.5
20260831121006 73 230 0.0 0.0 0.00 0.00 0.00 93 1017.2
20260831120516 73 205 0.0 0.0 0.00 0.00 0.00 93 1016.4
20260831120511 73 230 0.0 0.0 0.00 0.00 0.00 93 1017.1
20260831120029 73 205 0.0 0.0 0.00 0.00 0.00 93 1016.3
20260831115515 73 205 0.0 0.0 0.00 0.00 0.00 93 1016.3
20260831115015 74 205 0.0 0.0 0.00 0.00 0.00 93 1016.4
20260831115007 74 230 0.0 0.0 0.00 0.00 0.00 93 1017.2
20260831114545 74 205 0.0 0.0 0.00 0.00 0.00 93 1016.4
20260831114508 74 230 0.0 0.0 0.00 0.00 0.00 93 1017.2
20260831114015 74 205 0.0 0.0 0.00 0.00 0.00 93 1016.4
20260831114004 74 230 0.0 0.0 0.00 0.00 0.00 93 1017.2
20260831113517 74 205 0.0 0.0 0.00 0.00 0.00 93 1016.4
20260831113504 74 230 0.0 0.0 0.00 0.00 0.00 93 1017.2
20260831113033 74 205 0.0 0.0 0.00 0.00 0.00 93 1016.3
20260831113015 74 230 0.0 0.0 0.00 0.00 0.00 93 1017.1
20260831112508 74 230 0.0 0.0 0.00 0.00 0.00 93 1017.1
20260831112008 74 230 0.0 0.0 0.00 0.00 0.00 92 1017.1
20260831112003 74 205 0.0 0.0 0.00 0.00 0.00 92 1016.4
20260831111515 74 205 0.0 0.0 0.00 0.00 0.00 92 1016.3
20260831111013 74 205 0.0 0.0 0.00 0.00 0.00 92 1016.2
20260831111008 74 230 0.0 0.0 0.00 0.00 0.00 92 1017.0
20260831110513 74 230 0.0 0.0 0.00 0.00 0.00 92 1017.0
20260831110015 75 230 0.0 0.0 0.00 0.00 0.00 92 1016.9
20260831110008 75 205 0.0 0.0 0.00 0.00 0.00 92 1016.2
20260831105511 75 205 0.0 2.0 0.00 0.00 0.00 92 1016.2
20260831105016 75 230 0.0 2.0 0.00 0.00 0.00 92 1016.9
20260831105013 75 205 0.0 3.0 0.00 0.00 0.00 92 1016.2
20260831104532 75 230 0.0 2.0 0.00 0.00 0.00 91 1016.9
20260831104514 75 184 0.0 3.0 0.00 0.00 0.00 91 1016.2
20260831104008 75 230 0.0 2.0 0.00 0.00 0.00 91 1016.9
20260831104003 75 222 2.0 3.0 0.00 0.00 0.00 91 1016.2
20260831103505 75 219 0.0 2.0 0.00 0.00 0.00 91 1016.2
20260831103503 75 230 0.0 2.0 0.00 0.00 0.00 91 1017.0
20260831103013 75 194 0.0 2.0 0.00 0.00 0.00 91 1016.9
20260831103011 75 179 1.0 3.0 0.00 0.00 0.00 91 1016.2
20260831102504 75 196 0.0 2.0 0.00 0.00 0.00 91 1016.8
20260831102007 75 156 1.0 3.0 0.00 0.00 0.00 91 1016.1
20260831101526 75 178 1.0 3.0 0.00 0.00 0.00 91 1016.1
20260831101518 75 175 0.0 2.0 0.00 0.00 0.00 91 1016.9
20260831101010 75 152 0.0 2.0 0.00 0.00 0.00 91 1017.0
20260831101003 75 167 1.0 3.0 0.00 0.00 0.00 91 1016.2
20260831100508 75 142 0.0 3.0 0.00 0.00 0.00 91 1016.2
20260831100504 75 189 0.0 2.0 0.00 0.00 0.00 91 1017.1
20260831100025 75 176 0.0 2.0 0.00 0.00 0.00 91 1017.0
20260831095512 75 147 0.0 4.0 0.00 0.00 0.00 91 1016.3
20260831095004 75 184 0.0 2.0 0.00 0.00 0.00 91 1016.9
20260831094526 75 187 0.0 2.0 0.00 0.00 0.00 90 1016.9
20260831094520 75 161 0.0 2.0 0.00 0.00 0.00 90 1016.2
20260831094014 76 161 1.0 3.0 0.00 0.00 0.00 90 1016.1
20260831093518 76 179 0.0 2.0 0.00 0.00 0.00 90 1016.9
20260831093506 76 150 1.0 3.0 0.00 0.00 0.00 90 1016.2
20260831093017 75 180 0.0 2.0 0.00 0.00 0.00 90 1016.9
20260831093009 75 148 0.0 2.0 0.00 0.00 0.00 90 1016.2
20260831092507 76 170 0.0 3.0 0.00 0.00 0.00 90 1016.2
20260831092007 75 149 0.0 2.0 0.00 0.00 0.00 90 1016.9
20260831092005 75 182 1.0 3.0 0.00 0.00 0.00 90 1016.3
20260831091521 76 159 0.0 2.0 0.00 0.00 0.00 90 1016.2
20260831091514 76 197 0.0 2.0 0.00 0.00 0.00 90 1017.0
20260831091008 76 159 0.0 2.0 0.00 0.00 0.00 90 1016.2
20260831090510 76 215 0.0 2.0 0.00 0.00 0.00 90 1016.9
20260831090027 75 189 0.0 2.0 0.00 0.00 0.00 90 1016.9
20260831090023 75 159 1.0 2.0 0.00 0.00 0.00 90 1016.2
20260831085508 76 189 0.0 0.0 0.00 0.00 0.00 89 1016.9
20260831085013 76 158 0.0 2.0 0.00 0.00 0.00 89 1016.2
20260831085011 76 189 0.0 2.0 0.00 0.00 0.00 89 1016.9
20260831084538 76 189 0.0 2.0 0.00 0.00 0.00 89 1016.9
20260831084529 76 158 0.0 2.0 0.00 0.00 0.00 89 1016.2
20260831084014 75 189 0.0 0.0 0.00 0.00 0.00 89 1016.9
20260831084005 75 158 0.0 2.0 0.00 0.00 0.00 89 1016.2
20260831083508 75 189 0.0 0.0 0.00 0.00 0.00 89 1017.0
20260831083031 76 189 0.0 0.0 0.00 0.00 0.00 89 1017.1
20260831083028 76 158 0.0 2.0 0.00 0.00 0.00 89 1016.3
20260831082516 76 158 0.0 3.0 0.00 0.00 0.00 88 1016.3
20260831082008 76 189 0.0 2.0 0.00 0.00 0.00 88 1017.0
20260831082006 76 158 1.0 3.0 0.00 0.00 0.00 88 1016.3
20260831081521 76 169 0.0 2.0 0.00 0.00 0.00 88 1016.9
20260831081511 76 167 0.0 3.0 0.00 0.00 0.00 88 1016.3
20260831081009 76 169 0.0 2.0 0.00 0.00 0.00 88 1016.9
20260831081007 76 143 0.0 4.0 0.00 0.00 0.00 88 1016.2
20260831080510 76 158 0.0 2.0 0.00 0.00 0.00 87 1016.9
20260831080505 76 166 1.0 4.0 0.00 0.00 0.00 87 1016.2
20260831080024 76 159 0.0 2.0 0.00 0.00 0.00 87 1016.9
20260831080018 76 156 1.0 3.0 0.00 0.00 0.00 87 1016.3
20260831075511 77 159 0.0 2.0 0.00 0.00 0.00 87 1017.0
20260831075017 77 185 0.0 2.0 0.00 0.00 0.00 87 1017.0
20260831075013 77 183 1.0 4.0 0.00 0.00 0.00 87 1016.3
20260831074534 77 183 0.0 2.0 0.00 0.00 0.00 87 1017.0
20260831074516 77 147 1.0 4.0 0.00 0.00 0.00 87 1016.3
20260831074013 77 158 2.0 4.0 0.00 0.00 0.00 86 1016.3
20260831073514 77 173 1.0 6.0 0.00 0.00 0.00 86 1016.2
20260831073512 77 171 0.0 2.0 0.00 0.00 0.00 86 1017.0
20260831073059 77 173 0.0 2.0 0.00 0.00 0.00 86 1016.9
20260831073010 77 150 1.0 6.0 0.00 0.00 0.00 86 1016.2
20260831072509 77 166 2.0 6.0 0.00 0.00 0.00 86 1016.2
20260831072507 77 189 0.0 2.0 0.00 0.00 0.00 86 1016.8
20260831072014 77 149 1.0 4.0 0.00 0.00 0.00 86 1016.2
20260831072012 77 192 0.0 3.0 0.00 0.00 0.00 86 1016.9
20260831071539 77 163 1.0 3.0 0.00 0.00 0.00 86 1016.2
20260831071533 77 160 0.0 3.0 0.00 0.00 0.00 86 1017.1
20260831071008 77 174 0.0 2.0 0.00 0.00 0.00 85 1017.2
20260831071006 77 153 1.0 5.0 0.00 0.00 0.00 85 1016.4
20260831070507 77 163 0.0 2.0 0.00 0.00 0.00 85 1017.2